SBI5591 UNNT-UDYZ

Flight info

Callsign SBI5591
Flight time N/A
Altitude 34000
Route LUNIM B808 DAKIN N55 OGANU P574 AKT N996 PIKAN A80 GIPAR N996 SUBUT T916 SEVAN
Aircraft A321/M-SDE3FGHIRWY/LB1

Departure

Time 2026-05-07 05:30
Airport Novosibirsk Tolmachevo Airport (UNNT)

Arrival

Time N/A
Airport Zvartnots International Airport (UDYZ)
Time Latitude Longitude Altitude Speed Heading
2026-05-07 05:01 55.01036 82.67140 373 ft 0 kts 171°
2026-05-07 05:21 55.01042 82.67138 373 ft 2 kts 170°
2026-05-07 05:22 55.01058 82.67134 373 ft 2 kts 171°
2026-05-07 05:22 55.01074 82.67129 373 ft 2 kts 172°
2026-05-07 05:22 55.01091 82.67126 373 ft 2 kts 177°
2026-05-07 05:22 55.01107 82.67125 373 ft 2 kts 176°
2026-05-07 05:23 55.01124 82.67122 373 ft 2 kts 168°
2026-05-07 05:23 55.01140 82.67116 373 ft 2 kts 170°
2026-05-07 05:23 55.01146 82.67114 373 ft 0 kts 172°
2026-05-07 05:25 55.01143 82.67115 373 ft 2 kts 172°
2026-05-07 05:25 55.01122 82.67120 373 ft 5 kts 169°
2026-05-07 05:26 55.01102 82.67174 373 ft 7 kts 95°
2026-05-07 05:26 55.01107 82.67281 373 ft 11 kts 86°
2026-05-07 05:26 55.01112 82.67422 373 ft 10 kts 74°
2026-05-07 05:26 55.01150 82.67489 373 ft 6 kts 33°
2026-05-07 05:27 55.01170 82.67512 373 ft 1 kts 32°
2026-05-07 05:27 55.01182 82.67525 373 ft 3 kts 31°
2026-05-07 05:27 55.01214 82.67558 373 ft 8 kts 31°
2026-05-07 05:27 55.01279 82.67625 373 ft 14 kts 30°
2026-05-07 05:28 55.01371 82.67720 372 ft 14 kts 31°
2026-05-07 05:28 55.01458 82.67775 371 ft 12 kts 345°
2026-05-07 05:28 55.01481 82.67678 371 ft 0 kts 261°
2026-05-07 05:28 55.01481 82.67677 371 ft 1 kts 261°
2026-05-07 05:29 55.01454 82.67387 371 ft 59 kts 261°
2026-05-07 05:29 55.01356 82.66298 373 ft 121 kts 261°
2026-05-07 05:29 55.01197 82.64546 375 ft 170 kts 261°
2026-05-07 05:29 55.01017 82.62445 838 ft 177 kts 262°
2026-05-07 05:30 55.00837 82.60284 1617 ft 180 kts 259°
2026-05-07 05:30 55.00663 82.58272 2028 ft 184 kts 260°
2026-05-07 05:30 55.00450 82.55961 2189 ft 200 kts 259°
2026-05-07 05:30 55.00277 82.53512 2495 ft 209 kts 271°
2026-05-07 05:31 55.00741 82.50990 2617 ft 231 kts 292°
2026-05-07 05:31 55.01433 82.48387 3055 ft 239 kts 293°
2026-05-07 05:31 55.02134 82.45751 3698 ft 241 kts 293°
2026-05-07 05:31 55.02836 82.43103 4382 ft 241 kts 293°
2026-05-07 05:32 55.03534 82.40460 5055 ft 241 kts 292°
2026-05-07 05:32 55.04077 82.37691 5737 ft 241 kts 278°
2026-05-07 05:32 55.04144 82.34727 6258 ft 252 kts 262°
2026-05-07 05:32 55.03835 82.31673 6788 ft 258 kts 259°
2026-05-07 05:33 55.03511 82.28576 7386 ft 260 kts 260°
2026-05-07 05:33 55.03189 82.25464 7973 ft 262 kts 260°
2026-05-07 05:33 55.02867 82.22322 8575 ft 264 kts 260°
2026-05-07 05:33 55.02542 82.19156 9175 ft 266 kts 260°
2026-05-07 05:34 55.02214 82.15971 9780 ft 268 kts 260°
2026-05-07 05:34 55.01882 82.12760 10304 ft 272 kts 260°
2026-05-07 05:34 55.01540 82.09450 10418 ft 290 kts 260°
2026-05-07 05:34 55.01170 82.05890 10542 ft 308 kts 260°
2026-05-07 05:35 55.00774 82.02096 10657 ft 325 kts 260°
2026-05-07 05:35 55.00460 81.98102 10772 ft 341 kts 267°
2026-05-07 05:35 55.00365 81.93908 11054 ft 351 kts 268°
2026-05-07 05:35 55.00269 81.89642 11540 ft 354 kts 268°
2026-05-07 05:36 55.00171 81.85340 12057 ft 357 kts 268°
2026-05-07 05:36 55.00070 81.81003 12568 ft 360 kts 268°
2026-05-07 05:36 54.99967 81.76633 13082 ft 362 kts 267°
2026-05-07 05:36 54.99861 81.72277 13591 ft 365 kts 267°
2026-05-07 05:37 54.99754 81.67855 14073 ft 367 kts 268°
2026-05-07 05:37 54.99644 81.63385 14525 ft 370 kts 268°
2026-05-07 05:37 54.99530 81.58905 14958 ft 372 kts 267°
2026-05-07 05:37 54.99412 81.54398 15386 ft 374 kts 267°
2026-05-07 05:38 54.99292 81.49842 15810 ft 376 kts 267°
2026-05-07 05:38 54.99172 81.45278 16221 ft 379 kts 267°
2026-05-07 05:38 54.99050 81.40681 16629 ft 381 kts 267°
2026-05-07 05:38 54.98924 81.36060 17044 ft 383 kts 267°
2026-05-07 05:39 54.98794 81.31405 17450 ft 385 kts 267°
2026-05-07 05:39 54.98663 81.26792 17844 ft 388 kts 267°
2026-05-07 05:39 54.98527 81.22088 18240 ft 390 kts 267°
2026-05-07 05:39 54.98389 81.17358 18600 ft 392 kts 266°
2026-05-07 05:40 54.98251 81.12599 18946 ft 394 kts 266°
2026-05-07 05:40 54.98111 81.07817 19279 ft 396 kts 266°
2026-05-07 05:40 54.97968 81.03005 19621 ft 398 kts 266°
2026-05-07 05:40 54.97821 80.98190 19971 ft 400 kts 266°
2026-05-07 05:41 54.97660 80.93341 20314 ft 402 kts 265°
2026-05-07 05:41 54.97433 80.88477 20648 ft 404 kts 264°
2026-05-07 05:41 54.97149 80.83612 20987 ft 405 kts 263°
2026-05-07 05:41 54.96832 80.78727 21328 ft 407 kts 263°
2026-05-07 05:42 54.96504 80.73821 21665 ft 409 kts 263°
2026-05-07 05:42 54.96178 80.68897 21980 ft 411 kts 263°
2026-05-07 05:42 54.95857 80.63948 22306 ft 412 kts 263°
2026-05-07 05:42 54.95543 80.58973 22620 ft 414 kts 263°
2026-05-07 05:43 54.95233 80.53988 22934 ft 416 kts 263°
2026-05-07 05:43 54.94921 80.48967 23248 ft 418 kts 263°
2026-05-07 05:43 54.94608 80.43933 23552 ft 420 kts 263°
2026-05-07 05:43 54.94287 80.38864 23821 ft 422 kts 263°
2026-05-07 05:44 54.93962 80.33790 24095 ft 423 kts 263°
2026-05-07 05:44 54.93635 80.28771 24358 ft 424 kts 263°
2026-05-07 05:44 54.93300 80.23667 24628 ft 425 kts 263°
2026-05-07 05:44 54.92966 80.18553 24892 ft 426 kts 263°
2026-05-07 05:45 54.92628 80.13439 25146 ft 426 kts 263°
2026-05-07 05:45 54.92283 80.08315 25402 ft 427 kts 263°
2026-05-07 05:45 54.91940 80.03195 25656 ft 428 kts 263°
2026-05-07 05:45 54.91595 79.98027 25918 ft 429 kts 263°
2026-05-07 05:46 54.91249 79.92866 26184 ft 430 kts 263°
2026-05-07 05:46 54.90900 79.87723 26547 ft 428 kts 263°
2026-05-07 05:46 54.90552 79.82595 26937 ft 426 kts 264°
2026-05-07 05:46 54.90203 79.77508 27327 ft 423 kts 263°
2026-05-07 05:47 54.89849 79.72447 27706 ft 421 kts 264°
2026-05-07 05:47 54.89496 79.67406 28089 ft 419 kts 264°
2026-05-07 05:47 54.89262 79.64074 28316 ft 418 kts 264°
2026-05-07 05:47 54.88910 79.59072 28703 ft 416 kts 264°
2026-05-07 05:48 54.88441 79.52491 29201 ft 413 kts 264°
2026-05-07 05:48 54.88084 79.47548 29563 ft 411 kts 264°
2026-05-07 05:48 54.87728 79.42644 29926 ft 408 kts 264°
2026-05-07 05:48 54.87493 79.39406 30158 ft 407 kts 264°
2026-05-07 05:49 54.87141 79.34545 30460 ft 405 kts 264°
2026-05-07 05:49 54.86787 79.29697 30730 ft 404 kts 264°
2026-05-07 05:49 54.86434 79.24866 30985 ft 403 kts 264°
2026-05-07 05:49 54.86080 79.20045 31248 ft 401 kts 264°
2026-05-07 05:50 54.85724 79.15249 31520 ft 400 kts 264°
2026-05-07 05:50 54.85364 79.10463 31772 ft 399 kts 264°
2026-05-07 05:50 54.85001 79.05684 31949 ft 399 kts 265°